Regional Weather Roundup
Issued by NWS

Home | Current Version | Previous Version | Text Only | Print | Product List | Glossary On
Versions: 1 2 3 4 5 6 7 8 9 10 11 12 13 14 15 16 17 18 19 20 21 22 23 24 25 26 27 28 29 30 31 32 33 34 35 36 37 38 39 40 41 42 43 44 45 46 47 48 49 50
000
ASUS43 KMKX 282221
RWRWI

WISCONSIN REGIONAL WEATHER ROUNDUP
NATIONAL WEATHER SERVICE MILWAUKEE/SULLIVAN WI
500 PM CDT MON JUL 28 2014

NOTE: "FAIR" INDICATES FEW OR NO CLOUDS BELOW 12,000 FEET WITH NO
SIGNIFICANT WEATHER AND/OR OBSTRUCTIONS TO VISIBILITY.

WIZ001-002-006>008-014>016-023>028-282300-
NORTHWEST WISCONSIN

CITY           SKY/WX    TMP DP  RH WIND       PRES   REMARKS
SUPERIOR ARPT  CLOUDY    73  54  51 NW10      30.11S
ASHLAND        CLOUDY    71  56  58 VRB7      30.10F
HAYWARD        SUNNY     74  51  44 NW9       30.13F
SIREN          MOSUNNY   74  48  38 NW9       30.14F
RICE LAKE      SUNNY     73  52  47 N7        30.16S
LADYSMITH      MOSUNNY   72  53  50 NW7       30.14S
EAU CLAIRE     SUNNY     75  50  41 NW13      30.13S
MENOMONIE      CLEAR     74  47  38 NW5       30.13F
NEW RICHMOND   SUNNY     73  50  44 NW7       30.16S
OSCEOLA        MOSUNNY   73  53  49 NW6       30.18S
$$

WIZ003>005-009-010-017-018-282300-
NORTH CENTRAL WISCONSIN

CITY           SKY/WX    TMP DP  RH WIND       PRES   REMARKS
WOODRUFF       MOSUNNY   72  52  48 N12G21    30.11S
RHINELANDER    CLOUDY    67  51  56 NW7       30.11S
EAGLE RIVER    PTSUNNY   69  48  47 N9        30.09F
LAND O LAKES   PTSUNNY   69  50  51 N8        30.10S
PHILLIPS       CLOUDY    69  55  59 NW6       30.11F
TOMAHAWK       CLOUDY    67  52  58 CALM      30.11F
MEDFORD        CLOUDY    68  51  54 NW13      30.12S
MERRILL        CLOUDY    68  53  58 N5        30.10S
$$

WIZ029-030-035-036-043>047-282300-
CENTRAL WISCONSIN

CITY           SKY/WX    TMP DP  RH WIND       PRES   REMARKS
WAUSAU         CLOUDY    71  50  47 NW13      30.08S
MOSINEE        PTSUNNY   70  52  52 NW10G21   30.11S
MARSHFIELD     MOSUNNY   73  52  47 NW14G23   30.11S
STEVENS POINT  CLOUDY    71  50  47 W8        30.10S
WAUPACA        PTSUNNY   76  48  37 N9        30.06F
WAUTOMA        MOSUNNY   75  50  41 N15G22    30.08F
WISC RAPIDS    MOSUNNY   74  52  46 NW13      30.11S
CAMP DOUGLAS   PTSUNNY   72  54  53 NW6       30.11F
$$

WIZ011>013-019>022-031-037>040-048>050-282300-
NORTHEAST WISCONSIN

CITY           SKY/WX    TMP DP  RH WIND       PRES   REMARKS
ANTIGO         CLOUDY    67  52  58 N8        30.10S
STURGEON BAY   MOSUNNY   64  48  55 S5        30.06S
GREEN BAY      CLOUDY    72  54  53 N8        30.05S
MANITOWOC      CLOUDY    61  45  55 SE7       30.07S
APPLETON       PTSUNNY   73  46  38 NW9G16    30.06F
CLINTONVILLE   CLOUDY    72  46  40 N9        30.06S
OSHKOSH        CLOUDY    74  52  46 N8        30.05F
$$

WIZ032>034-041-042-053>061-282300-
SOUTHWEST WISCONSIN

CITY           SKY/WX    TMP DP  RH WIND       PRES   REMARKS
LA CROSSE      SUNNY     76  49  38 NW9       30.12F
SPARTA         PTSUNNY   74  46  36 NW10G18   30.13S
VIROQUA        CLOUDY    71  52  50 NW9       30.15S
BOSCOBEL       PTSUNNY   76  51  41 NW10      30.13F
PRAIRIE DU CHI PTSUNNY   73  45  36 W8        30.13F
PLATTEVILLE    PTSUNNY   72  51  47 NW9       30.15S
$$

WIZ056-057-062-063-064-067-068-282300-
SOUTH CENTRAL WISCONSIN

CITY           SKY/WX    TMP DP  RH WIND       PRES   REMARKS
BARABOO/DELLS  MOSUNNY   73  47  38 NW10      30.11S
LONE ROCK      CLOUDY    77  53  43 NW9       30.12S
WATERTOWN      PTSUNNY   70  52  52 NW8       30.08S
MADISON        PTSUNNY   73  51  46 NW9G20    30.10S
MIDDLETON      FAIR      74  49  41 NW10G16   30.11S
MONROE         CLOUDY    70  50  49 NW6       30.12S
JANESVILLE     PTSUNNY   75  46  35 NW12      30.10S
$$

WIZ051-052-058>065-066-070>072-282300-
SOUTHEAST WISCONSIN

CITY           SKY/WX    TMP DP  RH WIND       PRES   REMARKS
MILWAUKEE      PTSUNNY   64  50  60 E7        30.09S
WAUKESHA       PTSUNNY   70  48  46 NW10      30.09F
MILWAUKEE/TIMM PTSUNNY   68  48  49 E5        30.08F
RACINE         SUNNY     65  50  58 NE7       30.10F
BURLINGTON     SUNNY     70  49  47 N6        30.09S
KENOSHA        MOSUNNY   69  52  54 NE7       30.09S
FOND DU LAC    PTSUNNY   72  50  45 NW8       30.06F
SHEBOYGAN      MOSUNNY   66  50  56 E6        30.07F
WEST BEND      CLOUDY    68  50  52 N5        30.06F
JUNEAU         PTSUNNY   71  46  40 W8        30.09S
$$

LSZ147-162-282300-
LAKE SUPERIOR

STATION/POSITION TIME  TEMP    WIND        PRES    WAVE
                       AIR SEA DIR/SP/G            HT/PER
                 (UTC) (F)     (DEG/KT/KT) (MB)    (FT/S)
W MID LAKE BUOY  2150   53 44  300/  4/  6 1018.2R   1
PORT WING        2100   69     250/  7/ 10 1019.6F
SAXON HARBOR     2100             CALM     1019.3F
$$

LMZ867-665-643>646-282300-
LAKE MICHIGAN

STATION/POSITION TIME  TEMP    WIND        PRES    WAVE
                       AIR SEA DIR/SP/G            HT/PER
                 (UTC) (F)     (DEG/KT/KT) (MB)    (FT/S)
N MID LAKE BUOY  2150   55 53  190/  8/  8 1016.4F   1
NORTHPORT PIER   2100   66     320/  5/  7 1016.9F
KEWAUNEE LAKESHO 2200   55     180/  6/  8 1018.7F
SHEBOYGAN LAKESH 2200   58      CALM  /  2 1018.5F
PORT WASHINGTON  2140   62     100/  2/  3 1019.0F
ATWATER BUOY     2200   61      60/  6     1019.6F
MILWAUKEE LAKESH 2200   60      60/  5/  6   N/A
S MID LAKE BUOY  2150   59 60  340/ 17/ 19 1018.3R   6/ 7
KENOSHA   LAKESH 2200   61      40/ 10/ 12 1018.6S
$$

TC  - TEMPERATURE IN CELSIUS
VSB - VISIBILITY IN STATUTE MILES
WCI - WIND CHILL INDEX
HX  - HEAT INDEX




USA.gov is the U.S. government's official web portal to all federal, state and local government web resources and services.